Location: Gottolengo
(45.2833°N, 10.2667°E)
Time: 14:14:46
(UTC+00:00)

Daily predictions for brighter satellites

Satellite Brightness Start Highest point End
(mag) Time Altitude Azimuth Time Altitude Azimuth Time Altitude Azimuth
Cosmos 2237 Rocket 3.0 18:37:58 10° NNW 18:43:10 36° NE 18:48:20 10° ESE
Helios 1A Rocket 3.1 18:41:16 10° S 18:45:20 80° WSW 18:49:29 10° NNW
Cosmos 1818 3.6 18:41:10 10° SSW 18:46:35 79° ESE 18:52:05 10° NE
DMSP B5D2-2 4.1 18:43:27 10° NNE 18:48:44 81° ESE 18:54:01 10° SSW
H-2A R/B 4.1 18:45:17 10° SSW 18:49:32 28° W 18:53:47 10° NW
Cosmos 1892 3.6 18:49:27 10° NNW 18:53:08 51° W 18:56:49 10° S
Cosmos 1825 2.1 18:50:58 10° N 18:54:45 72° E 18:58:31 10° SSE
MetOp-A 4.2 18:52:15 10° SSE 18:57:37 90° WSW 19:03:01 10° NNW
Cosmos 2227 Rocket 3.2 18:53:34 10° SSE 18:58:06 25° ESE 19:02:39 10° NE
Exosat Rocket 3.7 18:52:00 10° NNW 18:58:19 81° ENE 19:03:23 10° SSE
Abrixas rocket 1.6 18:57:31 10° W 18:59:02 39° NNW 19:00:33 10° ENE
ATLAS 2AS CENTAUR R/B 3.8 18:52:33 10° SW 19:00:20 59° NW 19:07:59 10° NNE
BREEZE-M DEB (TANK) 4.0 18:57:38 10° W 19:00:35 69° NNW 19:07:57 10° ENE
Cosmos 1092 Rocket 4.1 18:55:31 10° N 19:01:47 81° W 19:07:56 10° S
Cosmos 2058 2.9 19:00:11 10° N 19:04:23 85° E 19:08:32 10° S
Cosmos 2297 Rocket 2.7 18:59:30 10° S 19:04:37 36° ESE 19:09:45 10° NE
FALCON 9 DEB 3.7 19:03:15 10° SSW 19:05:58 29° SE 19:08:40 10° ENE
Cosmos 405 4.4 19:03:23 10° SSW 19:06:41 41° WNW 19:10:00 10° N
Cosmos 1633 3.8 19:04:03 10° NNE 19:07:01 24° ENE 19:09:14 14° ESE
Lacrosse 5 rocket 3.9 19:05:01 10° NW 19:07:45 17° N 19:10:36 10° NE
FALCON 9 DEB 3.2 19:07:46 10° SSW 19:10:36 39° SE 19:13:28 10° ENE
Resurs 01 Rocket 2.5 19:08:36 12° SE 19:12:11 33° ENE 19:16:12 10° N
Cosmos 2219 3.6 19:08:35 10° S 19:13:44 39° ESE 19:18:55 10° NE
Resurs 1-3 3.8 19:09:33 10° SSE 19:13:51 56° ENE 19:18:09 10° N
Genesis I 4.1 19:11:06 10° NNW 19:14:50 36° NE 19:17:40 16° ESE
BREEZE-M DEB (TANK) 3.9 19:12:04 10° W 19:15:50 68° N 19:28:57 10° ENE
Cosmos 2333 Rocket 3.6 19:11:45 10° NW 19:17:00 37° WSW 19:22:12 10° S
SJ-6B 2.9 19:14:07 10° S 19:17:50 70° W 19:21:37 10° NNW
Cosmos 2084 Rocket 3.8 19:18:19 10° S 19:21:58 36° ESE 19:25:41 10° NE
Cosmos 389 Rocket 2.4 19:18:54 10° S 19:22:24 71° E 19:25:58 10° NNE
Cosmos 1190 Rocket 4.4 19:17:44 10° S 19:22:33 39° ESE 19:27:22 10° NE
FALCON 9 DEB 2.8 19:19:41 10° SW 19:22:39 55° SE 19:25:39 10° ENE
ERS-2 4.0 19:20:00 10° N 19:23:21 35° WNW 19:26:40 10° SW
Ariane Rocket 3.0 19:19:10 10° SSE 19:24:13 85° ENE 19:29:18 10° NNW
Cosmos 614 Rocket 4.0 19:20:56 10° SSW 19:26:04 82° WNW 19:31:12 10° NNE
Terra 4.1 19:26:31 10° ENE 19:27:01 10° NE 19:27:31 10° NE
Cosmos 2251 Rocket 4.2 19:22:35 10° SW 19:27:52 60° WNW 19:33:10 10° NNE
ATLAS 3B R/B 3.4 19:24:49 10° NW 19:31:41 55° WSW 19:38:47 10° SSE
Cosmos 2279 Rocket 3.9 19:26:24 10° S 19:32:34 82° E 19:38:47 10° N
SPOT 1/Viking Rocket 4.4 19:33:39 19° ESE 19:36:41 35° ENE 19:41:23 10° N
MOS 1 4.5 19:31:56 10° S 19:37:33 75° WSW 19:43:15 10° NNW
Cosmos-2242 3.4 19:35:48 17° SSE 19:38:44 41° E 19:42:48 10° NNE
Cosmos 1980 3.7 19:33:54 10° NNW 19:39:38 85° WSW 19:44:11 16° SSE
USA 215 4.0 19:34:16 12° E 19:40:01 46° NNE 19:46:12 10° NW
SL-16 R/B 3.0 19:34:56 10° NNW 19:40:13 37° NE 19:43:26 21° ESE
Cosmos 2151 3.0 19:37:15 10° N 19:41:32 60° E 19:44:10 22° SSE
FALCON 9 DEB 2.6 19:41:23 10° SW 19:44:26 73° SSE 19:46:41 17° ENE
SPOT 3 Rocket 3.6 19:40:39 18° SSE 19:44:29 67° ENE 19:49:38 10° N
COSMOS 2455 3.3 19:42:25 10° S 19:47:52 37° ESE 19:53:21 10° NE
SL-4 R/B 2.1 19:47:03 10° SW 19:51:23 71° SE 19:56:02 10° ENE
Cosmos 2219 Rocket 4.3 19:49:33 10° NW 19:53:49 22° W 19:58:05 10° SSW
BREEZE M DEB (TANK) 3.9 19:51:11 10° SSW 19:54:33 45° SE 20:04:03 10° ENE
ERS-1 Rocket 4.2 19:53:53 22° E 19:55:37 26° ENE 19:59:46 10° N
IGS 5A 3.4 19:54:21 27° SSE 19:56:32 78° ENE 20:00:42 10° N
Cosmos 1076 Rocket 4.4 19:53:30 10° NNW 19:57:42 49° W 20:01:45 10° SSW
OBJECT-B 3.4 19:55:25 10° SW 19:57:50 19° W 20:00:16 10° NW
Landsat 7 3.8 19:55:13 26° SSE 19:57:55 72° ENE 20:02:40 10° N
Cosmos 2266 Rocket 4.0 19:52:00 10° N 19:58:23 71° E 20:02:36 22° SSE
ATLAS 5 CENTAUR R/B 3.7 19:59:07 10° WSW 20:00:03 12° SW 20:01:00 11° SSW
Cosmos 2221 4.3 20:05:05 17° ENE 20:05:05 17° ENE 20:07:12 10° NE
ARIANE 5 R/B 3.2 20:04:04 33° ESE 20:05:16 41° ENE 20:09:23 10° N
Cosmos 2344 4.4 19:58:44 10° WSW 20:05:58 52° NW 20:13:52 10° NE
USA 245 3.3 20:05:50 44° E 20:06:09 46° ENE 20:09:07 10° N
Cosmos 407 Rocket 3.8 20:01:33 10° SSW 20:06:39 68° WNW 20:11:50 10° NNE
MetOp-B 4.1 20:09:17 27° SSE 20:12:18 88° ENE 20:17:42 10° NNW
Meteor 2-3 Rocket 3.7 20:08:36 10° NNW 20:14:23 85° W 20:17:47 25° S
Meteor 1-27 4.2 20:14:09 19° S 20:18:19 76° E 20:24:10 10° NNE
Cosmos 44 Rocket 3.4 20:13:25 10° SSW 20:18:20 56° ESE 20:23:26 10° NE
Cosmos 1140 Rocket 4.0 20:14:54 10° SW 20:19:57 59° WNW 20:25:02 10° NNE
Cosmos 1954 Rocket 3.8 20:19:29 14° SSW 20:23:59 82° ESE 20:29:10 10° NNE
CZ-2C R/B 3.6 20:20:37 10° NNE 20:25:04 80° WNW 20:27:43 24° SSW
Timation 2 Rocket 4.2 20:20:27 10° SW 20:27:01 72° WNW 20:33:19 10° NNE
Cosmos 2237 Rocket 3.3 20:22:04 10° NW 20:27:14 38° WSW 20:30:47 18° SSW
Cosmos 2263 Rocket 3.6 20:34:38 22° ENE 20:34:38 22° ENE 20:37:28 10° NE
Spot 2 Rocket 3.4 20:32:07 46° SSE 20:33:41 84° ENE 20:38:47 10° NNW
CARTOSAT-1 3.5 20:33:28 61° ESE 20:33:59 70° ENE 20:38:18 10° N
BREEZE M DEB (TANK) 3.1 20:28:45 10° W 20:35:28 54° NNW 20:36:34 34° NE
Cosmos 1766 Rocket 3.4 20:31:14 10° N 20:35:36 87° W 20:36:22 60° S
FALCON 9 DEB 4.2 20:38:47 10° W 20:41:38 39° NNW 20:41:38 39° NNW
Cosmos 2227 Rocket 3.0 20:36:17 10° SW 20:41:48 53° WNW 20:47:21 10° NNE
Cosmos 2082 3.6 20:37:15 16° SSW 20:41:50 87° ESE 20:47:29 10° NNE
Okean 3 Rocket 3.7 20:40:15 10° NNW 20:44:46 71° W 20:45:39 54° SSW
Lacrosse 5 rocket 3.4 20:44:39 10° NW 20:48:10 24° NNE 20:49:58 19° NE
Cosmos 2297 Rocket 3.6 20:43:23 10° WSW 20:48:37 38° NW 20:53:53 10° NNE
Cosmos 1869 3.7 20:47:58 50° WSW 20:48:38 59° W 20:52:34 10° N
Resurs 01 Rocket 3.5 20:46:10 16° SW 20:48:42 26° W 20:52:28 10° NW
Cosmos 1553 Rocket 4.2 20:48:26 44° ESE 20:49:03 45° E 20:54:50 10° NNE
Meteor 1-4 Rocket 3.1 20:50:30 54° WNW 20:50:30 54° WNW 20:53:50 10° N
Cosmos 468 Rocket 3.8 20:45:53 10° NNW 20:51:02 80° ENE 20:51:46 65° SE
Cosmos 841 Rocket 4.0 20:50:53 10° N 20:55:51 42° ENE 20:56:15 41° ENE
Cosmos 1763 Rocket 3.3 20:58:47 10° NNW 21:03:53 83° WSW 21:04:17 75° S
Terra 1.7 21:03:52 72° ENE 21:03:53 72° ENE 21:08:39 10° N
Cosmos 540 Rocket 3.5 21:06:34 10° NNW 21:11:40 63° ENE 21:11:40 63° ENE
Cosmos 921 Rocket 4.0 21:08:52 10° N 21:12:21 39° NE 21:12:21 39° NE
SPOT 5 2.9 21:14:08 65° WSW 21:14:15 65° W 21:19:02 10° NNW
Meteor 2-2 Rocket 4.2 21:15:41 60° SSW 21:16:48 84° W 21:22:32 10° N
NOSS 3-1 (C) 4.0 21:10:17 10° NW 21:17:50 89° NE 21:20:23 51° SE
Cosmos 1842 Rocket 3.9 21:20:26 66° NW 21:20:26 66° NW 21:24:31 10° N
USA 215 3.2 21:21:36 60° SSE 21:22:48 74° SW 21:29:23 10° NW
SL-16 R/B 3.1 21:19:08 10° NW 21:24:20 38° WSW 21:25:19 35° SW
SL-08 ROCKET BODY 4.2 21:24:58 10° N 21:31:02 83° W 21:31:36 73° SSW
SL-4 R/B 3.3 21:26:58 10° W 21:31:19 44° NNW 21:33:32 26° NE
COSMOS 2455 3.9 21:28:01 10° WSW 21:33:44 43° NW 21:39:28 10° NNE
ERS-1 Rocket 3.7 21:33:53 42° WSW 21:34:11 42° W 21:38:59 10° NNW
Cosmos 2227 4.2 21:40:44 70° ENE 21:40:44 70° ENE 21:45:55 10° NNE
Cosmos 2221 3.7 21:41:54 39° WNW 21:41:54 39° WNW 21:45:34 10° N
Sich 1 4.3 21:38:48 10° N 21:41:28 34° NNE 21:41:28 34° NNE
Meteor 1-20 Rocket 4.5 21:42:40 10° N 21:48:01 58° ENE 21:48:01 58° ENE
Cosmos 1943 3.2 21:44:49 10° NNW 21:50:06 79° NNW 21:50:06 79° NNW
Cosmos 1745 Rocket 3.9 21:46:50 10° N 21:53:09 81° W 21:53:25 79° SW
SeaSat 1 3.8 21:48:44 10° NE 21:51:19 29° NE 21:51:19 29° NE
Cosmos 1570 Rocket 4.2 21:48:39 10° NNW 21:53:15 68° NNW 21:53:15 68° NNW
Cosmos 1709 Rocket 4.0 21:52:11 10° N 21:58:09 66° ENE 21:58:09 66° ENE
S3M 4.1 22:05:25 67° WSW 22:05:55 70° W 22:12:20 10° N
Cosmos 883 Rocket 4.4 22:06:43 76° ENE 22:06:43 76° ENE 22:12:41 10° N
Cosmos 2263 Rocket 2.7 22:16:15 51° WNW 22:16:34 52° WNW 22:22:02 10° NNE
USA 229 DEB 4.1 22:19:49 10° NW 22:27:00 56° WSW 22:27:01 56° WSW
USA 229 4.1 22:19:55 10° NW 22:27:06 57° WSW 22:27:07 57° WSW
Lacrosse 5 rocket 3.3 22:23:29 10° NW 22:25:35 28° NW 22:25:35 28° NW
Cosmos 1844 Rocket 4.0 22:30:56 30° ENE 22:30:56 30° ENE 22:34:01 10° NE
ALOS 2 4.2 22:35:37 33° N 22:35:37 33° N 22:38:06 10° N
Terra 4.3 22:42:44 13° W 22:42:44 13° W 22:44:32 10° WNW
NOSS 3-1 (A) 4.4 22:37:38 10° NW 22:45:02 51° WSW 22:45:03 51° WSW
Cosmos 2154 Rocket 4.4 22:58:18 10° N 23:04:10 55° ENE 23:04:10 55° ENE
SL-4 R/B 4.4 23:07:19 10° WNW 23:09:09 22° NW 23:09:09 22° NW
SJ 16-02 4.1 23:17:22 11° ENE 23:17:22 11° ENE 23:17:39 10° ENE
Cosmos 2184 Rocket 4.1 23:09:21 10° N 23:14:58 71° NNW 23:14:58 71° NNW
Cosmos 2278 Rocket 4.2 23:19:29 18° ENE 23:19:29 18° ENE 23:21:55 10° NE
ATLAS 5 CENTAUR R/B 3.4 23:20:24 10° NNW 23:25:28 38° NE 23:27:06 32° ENE
SeaSat 1 4.1 23:26:43 10° N 23:30:49 27° NW 23:31:05 26° NW
Cosmos 1844 4.2 23:41:40 56° NNW 23:41:40 56° NNW 23:46:33 10° NNE
USA 281 3.1 23:43:09 79° ENE 23:43:09 79° ENE 23:49:45 10° NNW
COSMOS 2406 4.0 23:39:18 10° NNW 23:44:43 43° ENE 23:44:55 43° ENE
Gbstr 26 Del rocket 4.3 23:53:47 56° ENE 23:53:47 56° ENE 23:58:06 10° ENE
